Location: Newark
(45.5000°N, 11.4167°E)
Time: 04:54:53
(UTC+00:00)

Transit 2A Rocket - Pass Details

Date: 26 August 2019
Orbit: 593 x 910 km, 66.7° (Epoch: 14 October)

Event Time Altitude Azimuth Distance (km) Brightness Sun altitude
Rises 02:11:31 0° 327° (NNW) 3,017 8.2 -21.5°
Reaches altitude 10° 02:13:54 10° 329° (NNW) 2,057 7.3 -21.2°
Maximum altitude 02:18:30 81° 55° (NE) 630 4.6 -20.6°
Drops below altitude 10° 02:22:50 10° 145° (SE) 1,935 7.0 -20.0°
Sets 02:25:01 0° 146° (SSE) 2,822 7.9 -19.8°
